Location: Unspecified
(0.0000°N, 0.0000°E)
Time: 15:03:35
(UTC+00:00)

CUTE-I - Pass Details

Date: 09 December 2019
Orbit: 811 x 824 km, 98.7° (Epoch: 14 August)

Event Time Altitude Azimuth Distance (km) Brightness Sun altitude
Rises 18:32:37 0° 184° (S) 3,344 ? -9.3°
Reaches altitude 10° 18:35:08 10° 193° (SSW) 2,412 ? -9.9°
Maximum altitude 18:39:56 34° 257° (WSW) 1,312 ? -11.0°
Drops below altitude 10° 18:44:44 10° 321° (NW) 2,410 ? -12.1°
Sets 18:47:16 0° 331° (NNW) 3,341 ? -12.6°
